Location: York
(31.8935°S, 116.7682°E)
Time: 01:41:45
(UTC+08:00)

Tiros 1 despin weight - All Passes

Search period start: 19 June 2021 00:00
Search period end: 29 June 2021 00:00
Orbit: 593 x 641 km, 48.2° (Epoch: 17 June)

Date Brightness Start Highest point End Pass type
(mag) Time Alt. Az. Time Alt. Az. Time Alt. Az.
19 Jun - 01:40:14 10° WSW 01:44:33 38° NW 01:48:46 10° NNE night (unlit)
19 Jun - 15:44:33 10° NNE 15:47:27 16° NE 15:50:23 10° E daylight
19 Jun - 17:23:54 10° WNW 17:28:35 71° SW 17:33:20 10° SE daylight
19 Jun - 19:07:33 10° WSW 19:10:49 18° SSW 19:14:05 10° SSE visible
19 Jun - 20:52:59 10° SSW 20:53:57 11° S 20:54:57 10° SSE visible
19 Jun - 22:34:02 10° SSW 22:37:09 17° SSE 22:40:14 10° ESE night (unlit)
20 Jun - 00:14:45 10° SW 00:19:25 65° SE 00:23:59 10° ENE night (unlit)
20 Jun - 01:57:30 10° W 02:00:34 18° NW 02:03:36 10° N night (unlit)
20 Jun - 15:59:15 10° NNW 16:03:28 35° NE 16:07:47 10° ESE daylight
20 Jun - 17:40:38 10° W 17:45:00 37° SSW 17:49:25 10° SE visible
20 Jun - 19:25:21 10° SW 19:27:39 13° SSW 19:29:56 10° SSE visible
20 Jun - 21:09:25 10° SSW 21:10:57 11° S 21:12:29 10° SSE night (unlit)
20 Jun - 22:49:55 10° SSW 22:53:51 26° SSE 22:57:46 10° E night (unlit)
21 Jun - 00:31:04 10° WSW 00:35:41 61° NW 00:40:13 10° NE night (unlit)
21 Jun - 16:14:58 10° NW 16:19:38 77° NE 16:24:22 10° SE daylight
21 Jun - 17:57:51 10° WSW 18:01:36 23° SSW 18:05:22 10° SSE visible
21 Jun - 19:43:17 10° SSW 19:44:36 11° S 19:45:55 10° S visible
21 Jun - 21:25:20 10° SSW 21:27:53 14° SSE 21:30:25 10° SE night (unlit)
21 Jun - 23:05:53 10° SW 23:10:24 44° SE 23:14:50 10° ENE night (unlit)
22 Jun - 00:47:49 10° WSW 00:51:48 28° NW 00:55:42 10° N night (unlit)
22 Jun - 14:51:05 10° N 14:54:40 22° NE 14:58:19 10° E daylight
22 Jun - 16:31:23 10° WNW 16:35:57 53° SW 16:40:37 10° SE daylight
22 Jun - 18:15:29 10° SW 18:18:21 16° SSW 18:21:14 10° SSE visible
22 Jun - 20:00:29 10° S 20:01:36 11° S 20:02:42 10° SSE visible
22 Jun - 21:41:10 10° SSW 21:44:41 20° SSE 21:48:09 10° ESE night (unlit)
22 Jun - 23:22:02 10° SW 23:26:47 86° SE 23:31:24 10° NE night (unlit)
23 Jun - 01:05:47 10° WNW 01:07:47 13° NW 01:09:45 10° NNW night (unlit)
23 Jun - 15:06:17 10° NNW 15:10:44 48° NE 15:15:17 10° ESE daylight
23 Jun - 16:48:18 10° W 16:52:26 30° SSW 16:56:38 10° SSE daylight
23 Jun - 18:33:22 10° SSW 18:35:15 12° S 18:37:07 10° SSE visible
23 Jun - 20:16:36 10° SSW 20:18:33 12° S 20:20:31 10° SE visible
23 Jun - 21:57:05 10° SSW 22:01:19 31° SSE 22:05:29 10° E night (unlit)
23 Jun - 23:38:30 10° WSW 23:42:59 44° NW 23:47:22 10° NNE night (unlit)
24 Jun - 13:43:34 10° NNE 13:45:54 14° NE 13:48:17 10° E daylight
24 Jun - 15:22:18 10° NW 15:26:58 80° SW 15:31:42 10° SE daylight
24 Jun - 17:05:42 10° WSW 17:09:07 19° SSW 17:12:32 10° SSE daylight
24 Jun - 18:51:09 10° SSW 18:52:13 11° S 18:53:17 10° S visible
24 Jun - 20:32:28 10° SSW 20:35:26 16° SSE 20:38:24 10° ESE visible
24 Jun - 22:13:08 10° SW 22:17:48 57° SE 22:22:23 10° ENE night (unlit)
24 Jun - 23:55:34 10° W 23:59:02 21° NW 00:02:28 10° N night (unlit)
25 Jun - 13:57:52 10° NNW 14:01:54 30° NE 14:06:00 10° ESE daylight
25 Jun - 15:38:56 10° WNW 15:43:21 41° SSW 15:47:50 10° SE daylight
25 Jun - 17:23:27 10° SW 17:25:55 14° SSW 17:28:24 10° SSE daylight
25 Jun - 19:07:48 10° S 19:09:12 11° S 19:10:37 10° SSE visible
25 Jun - 20:48:21 10° SSW 20:52:11 24° SSE 20:55:59 10° E night (unlit)
25 Jun - 22:29:24 10° SW 22:34:06 71° NW 22:38:43 10° NE night (unlit)
26 Jun - 14:13:27 10° NW 14:18:02 66° NE 14:22:42 10° SE daylight
26 Jun - 15:56:03 10° W 15:59:55 25° SSW 16:03:48 10° SSE daylight
26 Jun - 17:41:23 10° SSW 17:42:50 11° S 17:44:20 10° SSE visible
26 Jun - 19:23:46 10° SSW 19:26:09 14° SSE 19:28:32 10° SE visible
26 Jun - 21:04:18 10° SW 21:08:45 39° SSE 21:13:09 10° ENE night (unlit)
26 Jun - 22:46:02 10° WSW 22:50:14 33° NW 22:54:23 10° NNE night (unlit)
27 Jun - 12:49:53 10° N 12:53:07 19° NE 12:56:24 10° E daylight
27 Jun - 14:29:44 10° WNW 14:34:19 61° SW 14:39:00 10° SE daylight
27 Jun - 16:13:36 10° WSW 16:16:38 17° SSW 16:19:41 10° SSE daylight
27 Jun - 17:58:48 10° SSW 17:59:50 11° S 18:00:52 10° SSE visible
27 Jun - 19:39:37 10° SSW 19:42:58 19° SSE 19:46:18 10° ESE visible
27 Jun - 21:20:24 10° SW 21:25:10 75° SE 21:29:49 10° NE night (unlit)
27 Jun - 23:03:34 10° W 23:06:15 15° NW 23:08:54 10° NNW night (unlit)
28 Jun - 13:04:51 10° NNW 13:09:10 41° NE 13:13:33 10° ESE daylight
28 Jun - 14:46:34 10° W 14:50:46 33° SSW 14:55:03 10° SE daylight
28 Jun - 16:31:28 10° SW 16:33:30 12° SSW 16:35:32 10° SSE daylight
28 Jun - 18:15:02 10° SSW 18:16:49 12° S 18:18:35 10° SSE visible
28 Jun - 19:55:31 10° SSW 19:59:39 29° SSE 20:03:44 10° E visible
28 Jun - 21:36:47 10° WSW 21:41:23 52° NW 21:45:55 10° NNE night (unlit)
